CW9461 Weather Reports


Display with metric or nautical units.
time (UTC)temp
F
wind
direction
speed
MPH
gust
MPH
rain 1hr
in
rain 24hr
in
rain mn
in
humidity
%
barometer
mb
20260831154604 59 199 3.0 7.0 0.00 0.00 0.00 81 1003.7
20260831154104 59 165 3.0 7.0 0.00 0.00 0.00 81 1003.8
20260831153604 59 164 2.0 8.0 0.00 0.00 0.00 81 1003.7
20260831153105 59 136 3.0 8.0 0.00 0.00 0.00 81 1003.8
20260831152604 59 120 5.0 10.0 0.00 0.00 0.00 82 1003.7
20260831152104 59 93 4.0 13.0 0.00 0.00 0.00 82 1003.7
20260831151604 59 145 3.0 6.0 0.00 0.00 0.00 82 1003.7
20260831151104 59 145 2.0 8.0 0.00 0.00 0.00 82 1003.7
20260831150105 58 123 2.0 6.0 0.00 0.00 0.00 83 1003.7
20260831145604 58 215 2.0 10.0 0.00 0.00 0.00 83 1003.4
20260831145105 58 145 3.0 9.0 0.00 0.00 0.00 83 1003.6
20260831144104 58 144 3.0 8.0 0.00 0.00 0.00 83 1003.4
20260831142604 58 137 2.0 10.0 0.00 0.00 0.00 83 1003.4
20260831142104 58 124 3.0 10.0 0.00 0.00 0.00 83 1003.0
20260831141604 58 134 3.0 9.0 0.00 0.00 0.00 83 1003.1
20260831141105 58 146 3.0 6.0 0.00 0.00 0.00 84 1003.0
20260831140604 58 164 3.0 10.0 0.00 0.00 0.00 84 1003.0
20260831135604 58 125 5.0 9.0 0.00 0.00 0.00 84 1003.0
20260831134604 58 143 4.0 10.0 0.00 0.00 0.00 84 1002.7
20260831134104 57 157 3.0 8.0 0.00 0.00 0.00 84 1002.7
20260831133105 58 155 4.0 8.0 0.00 0.00 0.00 83 1002.7
20260831132604 58 155 3.0 9.0 0.00 0.00 0.00 83 1002.7
20260831132104 58 130 5.0 14.0 0.00 0.00 0.00 83 1002.6
20260831131604 58 154 5.0 8.0 0.00 0.00 0.00 83 1002.7
20260831131104 58 137 5.0 10.0 0.00 0.00 0.00 83 1002.7
20260831130605 58 149 5.0 13.0 0.00 0.00 0.00 83 1002.6
20260831130104 58 140 3.0 8.0 0.00 0.00 0.00 83 1002.7
20260831125604 57 141 5.0 10.0 0.00 0.00 0.00 84 1002.7
20260831124604 58 138 2.0 6.0 0.00 0.00 0.00 84 1002.4
20260831124104 58 149 3.0 8.0 0.00 0.00 0.00 84 1002.4
20260831123104 58 154 3.0 8.0 0.00 0.00 0.00 84 1002.4
20260831122604 58 147 3.0 8.0 0.00 0.00 0.00 84 1002.4
20260831122104 58 147 3.0 12.0 0.00 0.00 0.00 84 1002.4
20260831121103 58 118 2.0 10.0 0.00 0.00 0.00 84 1002.4
20260831120604 58 160 5.0 10.0 0.00 0.00 0.00 84 1002.4
20260831120104 58 150 4.0 12.0 0.00 0.00 0.00 84 1002.4
20260831115604 58 142 4.0 7.0 0.00 0.00 0.00 84 1002.4
20260831115104 58 142 4.0 8.0 0.00 0.00 0.00 84 1002.3
20260831114604 58 152 5.0 9.0 0.00 0.00 0.00 84 1002.0
20260831114104 58 132 3.0 8.0 0.00 0.00 0.00 84 1002.0
20260831113605 58 130 3.0 12.0 0.00 0.00 0.00 85 1002.0
20260831113104 58 158 2.0 5.0 0.00 0.00 0.00 85 1002.0
20260831112605 58 154 3.0 8.0 0.00 0.00 0.00 85 1002.0
20260831112104 58 141 3.0 6.0 0.00 0.00 0.00 85 1002.0
20260831111605 58 155 3.0 9.0 0.00 0.00 0.00 85 1002.0
20260831111105 58 146 3.0 6.0 0.00 0.00 0.00 85 1002.0
20260831110604 58 130 3.0 9.0 0.00 0.00 0.00 85 1002.1
20260831110104 58 140 3.0 8.0 0.00 0.00 0.00 85 1002.4
20260831105604 58 141 5.0 12.0 0.00 0.00 0.00 85 1002.0
20260831104604 58 135 3.0 8.0 0.00 0.00 0.00 85 1002.0
20260831104105 58 128 3.0 8.0 0.00 0.00 0.00 85 1002.0
20260831103604 58 116 3.0 8.0 0.00 0.00 0.00 85 1002.0
20260831103105 58 141 3.0 8.0 0.00 0.00 0.00 85 1002.0
20260831101604 58 131 2.0 8.0 0.00 0.00 0.00 84 1001.7
20260831101104 58 157 5.0 8.0 0.00 0.00 0.00 84 1001.8
20260831100604 58 136 3.0 7.0 0.00 0.00 0.00 84 1001.9
20260831100104 58 133 5.0 9.0 0.00 0.00 0.00 84 1001.9
20260831095605 58 143 5.0 15.0 0.00 0.00 0.00 84 1002.0
20260831094104 58 155 3.0 7.0 0.00 0.00 0.00 84 1002.0
20260831093604 59 141 5.0 9.0 0.00 0.00 0.00 84 1001.9
20260831093105 59 137 4.0 7.0 0.00 0.00 0.00 84 1002.0
20260831092604 59 110 3.0 6.0 0.00 0.00 0.00 84 1002.0
20260831092104 59 122 3.0 7.0 0.00 0.00 0.00 84 1001.8
20260831091605 59 125 3.0 8.0 0.00 0.00 0.00 84 1002.0
20260831091104 59 129 3.0 7.0 0.00 0.00 0.00 84 1002.0
20260831090604 59 141 4.0 8.0 0.00 0.00 0.00 84 1001.9
20260831090105 59 149 3.0 7.0 0.00 0.00 0.00 84 1002.0
20260831085603 59 132 3.0 6.0 0.00 0.00 0.00 84 1002.0
20260831085103 59 146 3.0 10.0 0.00 0.00 0.00 83 1002.0
20260831084603 59 136 2.0 5.0 0.00 0.00 0.00 83 1001.8
20260831083603 59 136 4.0 9.0 0.00 0.00 0.00 83 1002.0
20260831083104 59 117 2.0 10.0 0.00 0.00 0.00 83 1002.0
20260831082604 59 155 2.0 7.0 0.00 0.00 0.00 82 1002.0
20260831082104 59 135 1.0 6.0 0.00 0.00 0.00 82 1002.0
20260831081104 59 139 1.0 6.0 0.00 0.00 0.00 81 1002.0
20260831080105 59 151 3.0 9.0 0.00 0.00 0.00 80 1002.2
20260831075604 60 137 2.0 5.0 0.00 0.00 0.00 80 1002.4
20260831075103 60 135 2.0 5.0 0.00 0.00 0.00 80 1002.4
20260831074603 60 140 3.0 7.0 0.00 0.00 0.00 79 1002.2
20260831074104 60 141 3.0 7.0 0.00 0.00 0.00 79 1002.0
20260831073604 60 116 1.0 3.0 0.00 0.00 0.00 79 1002.0
20260831073104 59 124 2.0 7.0 0.00 0.00 0.00 78 1002.0
20260831072605 59 152 3.0 6.0 0.00 0.00 0.00 78 1002.0
20260831072104 59 91 2.0 5.0 0.00 0.00 0.00 78 1002.0
20260831071604 59 139 2.0 5.0 0.00 0.00 0.00 78 1002.2
20260831071105 59 140 2.0 5.0 0.00 0.00 0.00 78 1002.0
20260831070603 59 113 2.0 8.0 0.00 0.00 0.00 79 1002.0
20260831070106 59 145 3.0 5.0 0.00 0.00 0.00 78 1002.2
20260831065606 59 140 3.0 9.0 0.00 0.00 0.00 78 1002.4
20260831064605 60 146 1.0 6.0 0.00 0.00 0.00 77 1002.2
20260831064106 60 149 1.0 6.0 0.00 0.00 0.00 76 1002.4
20260831063605 60 129 2.0 8.0 0.00 0.00 0.00 76 1002.0
20260831062606 60 116 2.0 5.0 0.00 0.00 0.00 75 1002.3
20260831062106 61 138 3.0 7.0 0.00 0.00 0.00 74 1002.2
20260831061606 61 149 2.0 5.0 0.00 0.00 0.00 74 1002.0
20260831060606 61 110 1.0 6.0 0.00 0.00 0.00 73 1002.2
20260831060105 61 135 2.0 5.0 0.00 0.00 0.00 72 1002.0
20260831055606 62 108 1.0 3.0 0.00 0.00 0.00 72 1002.0
20260831055107 62 135 1.0 2.0 0.00 0.00 0.00 71 1002.0
20260831054606 62 136 2.0 3.0 0.00 0.00 0.00 70 1001.9
20260831054106 62 109 1.0 3.0 0.00 0.00 0.00 70 1002.0
20260831053605 63 137 2.0 5.0 0.00 0.00 0.00 69 1001.9
20260831053106 63 125 2.0 3.0 0.00 0.00 0.00 68 1002.0
20260831052606 63 135 1.0 3.0 0.00 0.00 0.00 68 1001.9
20260831052106 64 133 1.0 3.0 0.00 0.00 0.00 67 1002.0
20260831051605 64 135 2.0 3.0 0.00 0.00 0.00 66 1002.0
20260831051107 64 135 1.0 3.0 0.00 0.00 0.00 66 1002.0
20260831050605 64 138 1.0 5.0 0.00 0.00 0.00 65 1002.0
20260831050106 65 137 1.0 5.0 0.00 0.00 0.00 64 1002.0
20260831045606 65 142 2.0 2.0 0.00 0.00 0.00 64 1002.0
20260831045105 65 136 1.0 3.0 0.00 0.00 0.00 63 1002.0
20260831044606 65 122 2.0 3.0 0.00 0.00 0.00 63 1002.0
20260831043605 66 135 2.0 6.0 0.00 0.00 0.00 63 1001.9
20260831042607 65 140 1.0 5.0 0.00 0.00 0.00 63 1002.0
20260831042106 65 153 1.0 2.0 0.00 0.00 0.00 63 1001.7
20260831041605 65 157 0.0 2.0 0.00 0.00 0.00 64 1001.7
20260831040606 66 135 0.0 0.0 0.00 0.00 0.00 63 1001.7
20260831040106 66 225 0.0 0.0 0.00 0.00 0.00 63 1001.7
20260831035106 67 156 0.0 2.0 0.00 0.00 0.00 62 1001.7
20260831034605 67 135 0.0 2.0 0.00 0.00 0.00 61 1001.7
20260831034105 68 135 0.0 0.0 0.00 0.00 0.00 60 1001.7
20260831033605 68 135 0.0 1.0 0.00 0.00 0.00 59 1001.7
20260831033106 68 120 0.0 1.0 0.00 0.00 0.00 58 1001.7
20260831032605 68 148 0.0 2.0 0.00 0.00 0.00 58 1001.7
20260831032105 69 135 1.0 2.0 0.00 0.00 0.00 58 1001.4
20260831031607 69 112 0.0 1.0 0.00 0.00 0.00 57 1001.4
20260831030605 70 112 0.0 1.0 0.00 0.00 0.00 55 1001.4
20260831030105 70 82 0.0 1.0 0.00 0.00 0.00 54 1001.4
20260831025605 71 337 0.0 1.0 0.00 0.00 0.00 53 1001.2
20260831025106 72 292 0.0 1.0 0.00 0.00 0.00 51 1001.2
20260831024606 72 292 0.0 2.0 0.00 0.00 0.00 50 1001.0
20260831024105 73 292 1.0 2.0 0.00 0.00 0.00 49 1001.0
20260831023605 74 292 0.0 2.0 0.00 0.00 0.00 47 1001.0
20260831021605 78 149 1.0 5.0 0.00 0.00 0.00 44 1000.7
20260831021106 78 123 0.0 3.0 0.00 0.00 0.00 44 1000.7
20260831020607 79 176 1.0 2.0 0.00 0.00 0.00 44 1000.9
20260831020106 79 160 1.0 3.0 0.00 0.00 0.00 44 1000.8
20260831015605 79 281 2.0 7.0 0.00 0.00 0.00 44 1000.8
20260831015105 79 255 2.0 5.0 0.00 0.00 0.00 44 1000.7
20260831014605 79 230 2.0 6.0 0.00 0.00 0.00 44 1000.7
20260831013605 79 258 3.0 10.0 0.00 0.00 0.00 43 1000.7
20260831013105 80 238 5.0 8.0 0.00 0.00 0.00 42 1000.7
20260831012605 80 236 5.0 10.0 0.00 0.00 0.00 41 1000.7
20260831012105 80 251 3.0 6.0 0.00 0.00 0.00 41 1000.7
20260831011606 80 287 3.0 8.0 0.00 0.00 0.00 41 1000.7
20260831011106 81 241 4.0 10.0 0.00 0.00 0.00 39 1000.7
20260831010605 82 232 6.0 12.0 0.00 0.00 0.00 38 1000.7
20260831010106 82 272 3.0 7.0 0.00 0.00 0.00 37 1000.7
20260831005607 82 242 3.0 5.0 0.00 0.00 0.00 37 1000.7
20260831004606 83 231 4.0 12.0 0.00 0.00 0.00 36 1000.7
20260831004105 83 268 3.0 6.0 0.00 0.00 0.00 36 1000.7
20260831003605 82 240 4.0 10.0 0.00 0.00 0.00 36 1000.7
20260831003106 83 250 3.0 6.0 0.00 0.00 0.00 35 1000.7
20260831002105 83 277 4.0 10.0 0.00 0.00 0.00 35 1000.7
20260831001605 83 269 3.0 12.0 0.00 0.00 0.00 35 1000.7
20260831001105 83 265 5.0 9.0 0.00 0.00 0.00 36 1000.7
20260831000605 82 291 4.0 7.0 0.00 0.00 0.00 37 1000.8
20260831000105 82 249 5.0 12.0 0.00 0.00 0.00 38 1000.8
20260830235605 82 269 4.0 9.0 0.00 0.00 0.00 38 1001.0
20260830235105 82 241 4.0 8.0 0.00 0.00 0.00 39 1000.9
20260830233605 82 290 3.0 6.0 0.00 0.00 0.00 41 1001.0
20260830233105 82 290 3.0 8.0 0.00 0.00 0.00 42 1001.0
20260830232605 82 267 3.0 8.0 0.00 0.00 0.00 42 1001.2
20260830232105 82 268 3.0 8.0 0.00 0.00 0.00 42 1001.0
20260830231105 82 258 5.0 8.0 0.00 0.00 0.00 42 1001.0
20260830230105 82 258 4.0 9.0 0.00 0.00 0.00 43 1001.2
20260830225606 82 248 5.0 10.0 0.00 0.00 0.00 43 1001.4
20260830225107 82 251 3.0 9.0 0.00 0.00 0.00 43 1001.4
20260830223106 81 245 3.0 7.0 0.00 0.00 0.00 45 1001.5
20260830222606 80 288 3.0 9.0 0.00 0.00 0.00 45 1001.7
20260830222105 81 285 2.0 7.0 0.00 0.00 0.00 45 1001.7
20260830221604 80 328 3.0 7.0 0.00 0.00 0.00 45 1001.7
20260830221106 81 261 3.0 7.0 0.00 0.00 0.00 45 1001.8
20260830220604 81 289 4.0 7.0 0.00 0.00 0.00 45 1001.7
20260830220105 80 242 3.0 7.0 0.00 0.00 0.00 45 1002.0
20260830215605 80 299 3.0 9.0 0.00 0.00 0.00 46 1002.2
20260830215105 80 263 3.0 7.0 0.00 0.00 0.00 46 1002.2
20260830213605 79 256 3.0 7.0 0.00 0.00 0.00 46 1002.4
20260830213105 79 248 4.0 9.0 0.00 0.00 0.00 46 1002.4
20260830212604 80 326 4.0 6.0 0.00 0.00 0.00 46 1002.4
20260830212106 80 250 3.0 8.0 0.00 0.00 0.00 46 1002.4
20260830211606 80 255 4.0 8.0 0.00 0.00 0.00 46 1002.7
20260830211105 80 313 3.0 7.0 0.00 0.00 0.00 46 1002.5
20260830210605 80 281 3.0 8.0 0.00 0.00 0.00 47 1002.5
20260830210105 79 258 2.0 6.0 0.00 0.00 0.00 47 1002.7
20260830205605 79 329 3.0 8.0 0.00 0.00 0.00 47 1002.7
20260830205105 79 241 4.0 9.0 0.00 0.00 0.00 47 1002.7
20260830204605 79 256 3.0 8.0 0.00 0.00 0.00 47 1003.0
20260830204104 79 268 3.0 8.0 0.00 0.00 0.00 48 1002.9
20260830203606 79 279 3.0 9.0 0.00 0.00 0.00 47 1003.0
20260830203104 79 287 3.0 7.0 0.00 0.00 0.00 47 1003.0
20260830202106 78 309 2.0 5.0 0.00 0.00 0.00 47 1003.2
20260830201605 79 297 2.0 6.0 0.00 0.00 0.00 47 1003.2
20260830201105 79 267 3.0 6.0 0.00 0.00 0.00 44 1003.3
20260830200605 80 216 3.0 8.0 0.00 0.00 0.00 43 1003.4
20260830200105 79 201 1.0 6.0 0.00 0.00 0.00 42 1003.4
20260830195605 79 195 1.0 7.0 0.00 0.00 0.00 43 1003.4
20260830195105 79 196 1.0 3.0 0.00 0.00 0.00 44 1003.4
20260830194106 78 126 1.0 5.0 0.00 0.00 0.00 45 1003.5
20260830193605 78 144 1.0 7.0 0.00 0.00 0.00 46 1003.6
20260830193105 77 138 1.0 3.0 0.00 0.00 0.00 46 1003.5
20260830192606 77 157 3.0 8.0 0.00 0.00 0.00 46 1003.7
20260830192105 77 132 1.0 5.0 0.00 0.00 0.00 47 1003.7
20260830191604 77 236 3.0 7.0 0.00 0.00 0.00 47 1003.7
20260830190605 76 141 1.0 5.0 0.00 0.00 0.00 50 1003.9
20260830190105 75 187 2.0 6.0 0.00 0.00 0.00 50 1004.1
20260830185605 75 218 1.0 6.0 0.00 0.00 0.00 50 1004.1
20260830185105 75 141 2.0 3.0 0.00 0.00 0.00 51 1004.1
20260830184604 74 169 2.0 6.0 0.00 0.00 0.00 52 1004.1
20260830184104 74 138 2.0 7.0 0.00 0.00 0.00 53 1004.1
20260830183606 73 180 2.0 6.0 0.00 0.00 0.00 54 1004.1
20260830182606 73 199 2.0 9.0 0.00 0.00 0.00 54 1004.1
20260830182105 73 135 2.0 5.0 0.00 0.00 0.00 54 1004.1
20260830181604 73 137 2.0 5.0 0.00 0.00 0.00 55 1004.1
20260830181104 72 165 3.0 7.0 0.00 0.00 0.00 55 1004.1
20260830180604 72 161 2.0 7.0 0.00 0.00 0.00 56 1004.1
20260830180105 72 159 2.0 6.0 0.00 0.00 0.00 56 1004.2
20260830175604 71 208 2.0 7.0 0.00 0.00 0.00 57 1004.4
20260830174104 70 141 2.0 6.0 0.00 0.00 0.00 59 1004.4
20260830173604 70 143 3.0 8.0 0.00 0.00 0.00 60 1004.4
20260830173105 70 131 2.0 8.0 0.00 0.00 0.00 61 1004.4
20260830172104 69 142 3.0 9.0 0.00 0.00 0.00 63 1004.5
20260830171106 69 166 4.0 8.0 0.00 0.00 0.00 64 1004.5
20260830170605 68 200 2.0 8.0 0.00 0.00 0.00 64 1004.4
20260830170105 68 155 2.0 7.0 0.00 0.00 0.00 65 1004.5
20260830165604 68 208 2.0 7.0 0.00 0.00 0.00 66 1004.7
20260830165105 67 167 2.0 7.0 0.00 0.00 0.00 67 1004.5
20260830164605 67 218 2.0 6.0 0.00 0.00 0.00 68 1004.5
20260830163604 66 159 3.0 8.0 0.00 0.00 0.00 69 1004.4
20260830163104 65 173 3.0 7.0 0.00 0.00 0.00 69 1004.6
20260830162605 65 158 4.0 8.0 0.00 0.00 0.00 70 1004.4
20260830162105 65 157 2.0 5.0 0.00 0.00 0.00 70 1004.4
20260830161604 64 148 3.0 6.0 0.00 0.00 0.00 71 1004.4
20260830160606 64 154 4.0 8.0 0.00 0.00 0.00 72 1004.4
20260830155104 63 133 3.0 9.0 0.00 0.00 0.00 74 1004.4